AirNav   Air Wisconsin Airman Trainee
 
 1489 users online  

FD51 Summerland Key Cove Airport
Summerland Key, Florida, USA

GOING TO SUMMERLAND KEY?


FAA INFORMATION EFFECTIVE 31 JANUARY 2019

Location

FAA Identifier: FD51
Lat/Long: 24-39-31.5160N / 081-26-29.2970W
24-39.525267N / 081-26.488283W
24.6587544 / -81.4414714
(estimated)
Elevation: 4 ft. / 1 m (estimated)
Variation: 02W (1985)
From city: ARPT LCTD 25 MI EAST OF KEY WEST.
Time zone: UTC -5 (UTC -4 during Daylight Saving Time)
Zip code: 33042

Airport Operations

Airport use: Private use. Permission required prior to landing
Activation date: 10/1957
Control tower: no
ARTCC: MIAMI CENTER
FSS: MIAMI FLIGHT SERVICE STATION
Attendance: DAYLIGHT HOURS
Wind indicator: yes
Segmented circle: no
Landing fee: yes

Airport Communications

WX ASOS at EYW (18 nm W): PHONE 305-292-4046
  • MULTICOM 122.9

Nearby radio navigation aids

VOR radial/distance  VOR name  Freq  Var
EYWr076/20.1KEY WEST VORTAC113.5001E

 
NDB name  Hdg/Dist  Freq  Var  ID
MARATHON264/19.126004WMTH -- - ....
FISH HOOK075/19.933204WFIS ..-. .. ...

Airport Services

Airframe service: NONE
Powerplant service: NONE

Runway Information

Runway 12/30

Dimensions: 2550 x 20 ft. / 777 x 6 m
Surface: asphalt
RUNWAY 12  RUNWAY 30
Traffic pattern: leftleft
Displaced threshold: 359 ft.290 ft.
Obstructions: 40 ft. pline, 350 ft. from runway25 ft. trees, 300 ft. from runway

Airport Ownership and Management from official FAA records

Ownership: Privately-owned
Owner: SUMMERLAND KEY COVE ARPT CO
PO BOX 420290
SUMMERLAND KEY, FL 33042
Phone 757-576-0159
Manager: MATT STETTNER
PO BOX 420290
SUMMERLAND KEY, FL 33042
Phone 757-576-0159

Airport Operational Statistics

Aircraft based on the field: 16
Single engine airplanes: 14
Multi engine airplanes: 2
    

Additional Remarks

35' PLINES 100' EACH SIDE OF RWY.

Instrument Procedures

There are no published instrument procedures at FD51.

Some nearby airports with instrument procedures:

KNQX - Key West Naval Air Station (Boca Chica Field) (14 nm W)
KEYW - Key West International Airport (18 nm W)
KMTH - The Florida Keys Marathon International Airport (22 nm E)
X51 - Miami Homestead General Aviation Airport (70 nm NE)
07FA - Ocean Reef Club Airport (75 nm NE)
 
Loc | Ops | Rwys | IFR | FBO | Links
Com | Nav | Svcs | Stats | Notes

Reliance Aviation
AirBoss

 
Area around FD51 (Summerland Key Cove Airport)
 
Road maps at: MapQuest Bing Google
 
Aerial photo
WARNING: Photo may not be current or correct
Aerial photo of FD51 (Summerland Key Cove Airport)
Do you have a better or more recent aerial photo of Summerland Key Cove Airport that you would like to share? If so, please send us your photo.

 
Sectional chart

 
Airport distance calculator
Flying to Summerland Key Cove Airport? Find the distance to fly.

From to FD51

Sunrise and sunset
Times for 19-Feb-2019
 Local
(UTC-5)
 Zulu
(UTC)
Morning civil twilight06:3511:35
Sunrise06:5811:58
Sunset18:2223:22
Evening civil twilight18:4523:45

Current date and time
Zulu (UTC)  19-Feb-2019 18:51:48
Local (UTC-5)  19-Feb-2019 13:51:48
 
METAR
KNQX 
13nm SW 
191753Z 12014KT 10SM SCT018 30/21 A3015 RMK AO2 SLP208 T03000206 10300 20256 58010 $
KEYW 
18nm W 
191753Z 11012KT 10SM CLR 28/22 A3015 RMK AO2 SLP210 T02830217 10289 20256 58011
KMTH 
22nm E 
191753Z AUTO 12008KT 10SM FEW027 31/21 A3015 RMK AO2 SLP209 T03060211 10306 20261 58012
TAF
KNQX 
13nm SW 
1915/2015 13015KT 9999 FEW020 QNH3008INS T29/1919Z T26/2011Z FN20027
KEYW 
18nm W 
191737Z 1918/2018 11013G17KT P6SM FEW025
NOTAMs
Click for the latest NOTAMs
NOTAMs are issued by the DoD/FAA and will open in a separate window not controlled by AirNav.

 

 
 

Would you like to see your business listed on this page?

 If your business provides an interesting product or service to pilots, flight crews, aircraft, or users of the Summerland Key Cove Airport, you should consider listing it here.  To start the listing process, click on the button below
 
Add a business
 

Other Pages about Summerland Key Cove Airport

Update a link
 
Copyright © AirNav, LLC. All rights reserved. Privacy Policy  Contact